Tracking 29040 objects as of 15-Jun-2024
HD Live streaming from Space Station
objects crossing your sky now

DELTA 1 R/B

Track DELTA 1 R/B now!
10-day predictions


NORAD ID: 7616
Int'l Code: 1975-004B
Perigee: 745.3 km
Apogee: 1,017.8 km
Inclination: 97.7 °
Period: 102.4 minutes
Semi major axis: 7252 km
RCS: 5.2306 m2 (large)
Launch date: January 22, 1975
Source: United States (US)
Launch site: AIR FORCE WESTERN TEST RANGE (AFWTR)

Note: This is a ROCKET BODY
Your satellite tracking list
Your tracking list is empty




NASA's NSSDC Master Catalog

Two Line Element Set (TLE):
1 07616U 75004B   24166.93186912  .00000250  00000-0  14776-3 0  9999
2 07616  97.7341 314.6617 0187843 106.9932 255.1918 14.05625912517506
Source of the keplerian elements: AFSPC